Location: Ithaca
(42.4410°N, 76.4970°W)
Time: 14:56:12
(UTC-05:00)

ISS - Visible Passes

Search period start: 17 December 2014 00:00
Search period end: 27 December 2014 00:00
Orbit: 404 x 415 km, 51.6° (Epoch: 17 December)

Date Brightness Start Highest point End Pass type
(mag) Time Alt. Az. Time Alt. Az. Time Alt. Az.
17 Dec -1.3 18:04:18 10° NW 18:06:29 16° N 18:06:49 16° N visible
18 Dec -1.3 17:13:18 10° NW 17:15:36 17° N 17:17:53 10° NE visible
18 Dec -0.5 18:50:32 10° NW 18:50:58 12° NNW 18:50:58 12° NNW visible
19 Dec -1.4 17:59:50 10° NW 18:02:08 17° N 18:02:21 17° NNE visible
20 Dec -1.3 17:08:57 10° NW 17:11:08 16° N 17:13:19 10° NE visible
20 Dec -0.9 18:45:32 10° NW 18:46:30 16° NNW 18:46:30 16° NNW visible
21 Dec -1.9 17:54:50 10° NW 17:57:30 22° NNE 17:57:54 22° NNE visible
22 Dec -1.6 17:04:01 10° NW 17:06:26 19° N 17:08:50 10° ENE visible
22 Dec -1.7 18:40:18 10° NW 18:42:07 29° NW 18:42:07 29° NW visible
23 Dec -2.6 17:49:28 10° NW 17:52:32 35° NNE 17:53:41 26° ENE visible
23 Dec 0.0 19:26:05 10° WNW 19:26:27 12° WNW 19:26:27 12° WNW visible
24 Dec -3.0 18:34:57 10° WNW 18:38:09 63° SW 18:38:09 63° SW visible
25 Dec -3.4 17:43:55 10° NW 17:47:12 72° NNE 17:50:05 13° ESE visible
25 Dec -0.1 19:21:36 10° W 19:22:53 14° WSW 19:22:53 14° WSW visible
26 Dec -1.1 18:29:44 10° WNW 18:32:30 25° SW 18:35:11 10° SSE visible
